sat.trackr.live / text

‹ back to catalog

STARLINK-3814

NORAD 52335 · 2022-045E

PAYLOAD ACTIVE UNKNOWN

§ Identity

Operator
Country
US
Launch date
2022-04-29
Launch site
AFETR
Launch vehicle
Mass (kg)
RCS (m²)

Purposes: comms

External: N2YO · Heavens-Above · Gunter

§ Orbital elements

Epoch: 2026-05-25T05:07:42.801312Z

Period
95.44 min
Inclination
53.2143°
Eccentricity
0.0001134
Mean motion
15.08836286 rev/d
Perigee alt
539.0 km
Apogee alt
540.5 km
Semi-major
6,917.9 km
B*
4.5593e-5
RAAN
225.5931°
Arg perigee
87.3754°
Mean anomaly
272.7367°
Rev number
22,719

§ Raw data

STARLINK-38141 52335U 22045E   26145.21368983  .00000438  00000+0  45593-4 0  99932 52335  53.2143 225.5931 0001134  87.3754 272.7367 15.08836286227190

JSON: /api/v1/satellites/52335 · /tle

For live sub-satellite position, see the globe view (requires WebGL).

§ Visibility from observer

Set your observer location to see the next 7 days of passes ≥ 10°. The values pass through the URL so the page stays shareable.

No JS? Fill the form by hand. The geolocation button needs JavaScript.